Location: Guadanolo
(41.9167°N, 12.9333°E)
Time: 01:08:52
(UTC+00:00)

Nadezhda 1 Rocket - Visible Passes

Search period start: 15 December 2019 00:00
Search period end: 25 December 2019 00:00
Orbit: 941 x 1006 km, 83.0° (Epoch: 14 December)

Date Brightness Start Highest point End Pass type
(mag) Time Alt. Az. Time Alt. Az. Time Alt. Az.
21 Dec 7.1 05:45:07 10° E 05:45:52 10° ENE 05:46:37 10° ENE visible
21 Dec 6.0 18:19:14 10° N 18:19:51 13° N 18:19:51 13° N visible
22 Dec 5.8 17:00:16 10° NNE 17:00:40 11° NNE 17:00:40 11° NNE visible
22 Dec 5.8 18:43:57 10° N 18:45:21 18° NNW 18:45:21 18° NNW visible
23 Dec 5.2 17:23:57 10° NNE 17:26:34 21° NNE 17:26:34 21° NNE visible
23 Dec 5.7 19:08:59 10° NNW 19:21:40 - SSW 19:11:18 23° NW visible
24 Dec 4.0 17:48:15 10° N 17:58:08 21° SSE 18:00:04 10° SSE visible
24 Dec 5.9 19:34:28 10° NW 19:42:14 15° WSW 19:43:39 10° SW visible
